Location: Caltech
(34.1382°N, 118.1253°W)
Time: 12:43:47
(UTC-08:00)

Cosmos 1606 - Visible Passes

Search period start: 25 February 2017 00:00
Search period end: 07 March 2017 00:00
Orbit: 508 x 531 km, 82.5° (Epoch: 25 February)

Date Brightness Start Highest point End Pass type
(mag) Time Alt. Az. Time Alt. Az. Time Alt. Az.
25 Feb 4.1 04:52:54 10° SSE 04:56:32 41° E 05:00:12 10° NNE visible
26 Feb 4.4 04:39:19 10° SSE 04:42:49 34° E 04:46:21 10° NNE visible
27 Feb 4.8 04:25:45 10° SSE 04:29:05 28° E 04:32:28 10° NNE visible
28 Feb 5.0 04:12:14 10° SE 04:15:22 24° E 04:18:33 10° NE visible
28 Feb 4.3 05:48:34 10° WSW 05:51:07 17° WNW 05:53:41 10° NW visible
01 Mar 5.3 03:58:47 10° SE 04:01:40 20° E 04:04:35 10° NE visible
01 Mar 4.1 05:34:26 10° SW 05:37:19 20° WNW 05:40:13 10° NNW visible
02 Mar 5.5 03:46:42 15° ESE 03:47:57 17° E 03:50:33 10° NE visible
02 Mar 3.8 05:21:54 18° WSW 05:23:31 23° WNW 05:26:41 10° NNW visible
03 Mar 5.7 03:34:26 14° E 03:34:26 14° E 03:36:25 10° NE visible
03 Mar 3.6 05:09:36 27° W 05:09:44 28° WNW 05:13:07 10° NNW visible
04 Mar 6.1 03:21:48 11° ENE 03:21:48 11° ENE 03:22:08 10° ENE visible
04 Mar 3.8 04:56:56 28° NW 04:56:56 28° NW 04:59:31 10° NNW visible
05 Mar 4.2 04:44:03 23° NNW 04:44:03 23° NNW 04:45:52 10° N visible
06 Mar 4.7 04:31:01 18° NNW 04:31:01 18° NNW 04:32:11 10° N visible
